Погода в Джейрахе

Россия / Республика Ингушетия     42°49′27″N   44°40′31″E
темп.,
°C
ветер,
м/с
пор.,
м/с
влажн.,
%
обл.,
%
осадки,
мм/ч
давл.,
гПа
погр.,
м
8 марта, пн
пн800:00−9ююз68773 0.0 1022145
03:00−10ююз56843 0.1 1022130
06:00−12ю468748 0.1 1021130
09:00−8ю468772 0.6 1019312
12:00−6ю358881 0.3 1017473
15:00−7ююз248989 0.8 1015464
18:00−10юз1296100 0.4 101755
21:00−12ююз2294100 0.9 101927
9 марта, вт
вт900:00−13ююз228696 0.2 101826
03:00−14ююз338274 0.2 101828
06:00−15ююз337739 0.0 101831
09:00−10ююз237227 0.0 1017269
12:00−7юз127821 0.1 1016738
15:00−7зюз137440 0.5 1015978
18:00−13ююз228870 0.3 101723
21:00−15ююз337653 0.4 102132
10 марта, ср
ср1000:00−16ююз33690 0.0 102232
03:00−17ююз336913 0.1 102330
06:00−17ююз337340 0.1 102427
09:00−10юз027938 0.2 1024345
12:00−8юз138140 0.3 1022694
15:00−8ююз237741 0.6 1021775
18:00−13ююз349356 0.3 102193
21:00−13ююз569061 0.4 1022211
11 марта, чт
чт1100:00−12ююз578693 0.2 1020217
03:00−12ююз568997 0.4 1019219
06:00−12ююз4591100 0.3 1019162
09:00−10ююз2590100 0.4 1017349
12:00−8зюз1589100 0.9 1015482
15:00−11с3294100 2.7 1014307
18:00−16с2298100 2.2 1017138
21:00−17ссв1199100 3.6 102075
12 марта, пт
пт1200:00−19с2299100 1.0 1020119
03:00−21ссз1299100 1.5 102277
06:00−22ссз23100100 0.4 1025102
09:00−19с2296100 0.6 1026309
12:00−16с3394100 0.3 1026440
15:00−15с3397100 0.6 1026397
18:00−20зсз1199100 0.2 103020
21:00−20юз228976 0.2 103320